Kalamazoo, MI

10:59 AM EDT on May 29, 2017 (GMT -0400)
Kalamazoo-Battle Creek International

Weather History for KAZO - October, 2012

Change the Weather History Date:

Wednesday, October 3, 2012

  Actual Average Record
Temperature  
Mean Temperature 61 °F 55 °F  
Max Temperature 63 °F 66 °F 88 °F (1953)
Min Temperature 58 °F 45 °F 28 °F (1974)
Degree Days  
Heating Degree Days 4 10  
Month to date heating degree days 20 30  
Since 1 July heating degree days 175 179  
Cooling Degree Days 0 1  
Month to date cooling degree days 0 3  
Year to date cooling degree days 1048 670  
Growing Degree Days 10 (Base 50)    
Moisture  
Dew Point 57 °F    
Average Humidity 89    
Maximum Humidity 100    
Minimum Humidity 78    
Precipitation  
Precipitation 0.09 in 0.12 in 2.00 in (1986)
Month to date precipitation 0.11 0.35  
Year to date precipitation 20.64 27.76  
Sea Level Pressure  
Sea Level Pressure 29.98 in    
Wind  
Wind Speed 6 mph (SSE)    
Max Wind Speed 22 mph    
Max Gust Speed 28 mph    
Visibility 4 miles    
Events Rain    
T = Trace of Precipitation, MM = Missing Value Source: NWS Daily Summary

Daily Weather History Graph

Daily Weather History Graph

Search for Another Location

Airport or City:

Trip Planner

Search our weather history database for the weather conditions in past years. The results will help you decide how hot, cold, wet, or windy it might be!

Date:

Astronomy

Oct. 03, 2012 Rise Set
Actual Time 7:41 AM EDT 7:19 PM EDT
Civil Twilight 7:13 AM EDT 7:47 PM EDT
Nautical Twilight 6:41 AM EDT 8:19 PM EDT
Astronomical Twilight 6:08 AM EDT 8:52 PM EDT
Moon 9:06 PM EDT (10/3) 11:09 AM EDT (10/3)
Length of Visible Light 12h 33m
Length of Day
11h 37m
Waning Gibbous, 89% of the Moon is Illuminated
Oct 3
Waning Gibbous
Oct 8
Last Quarter
Oct 15
New
Oct 21
First Quarter
Oct 29
Full

Hourly Weather History & Observations

Time (EDT) Temp. Dew Point Humidity Pressure Visibility Wind Dir Wind Speed Gust Speed Precip Events Conditions
12:13 AM 59.0 °F 55.4 °F 88% 29.92 in 8.0 mi Calm Calm - N/A   Overcast
12:53 AM 59.0 °F 55.9 °F 90% 29.92 in 8.0 mi Calm Calm - N/A   Overcast
1:53 AM 59.0 °F 55.9 °F 90% 29.92 in 7.0 mi Calm Calm - N/A   Overcast
2:53 AM 59.0 °F 57.0 °F 93% 29.93 in 4.0 mi Calm Calm - N/A   Overcast
3:14 AM 59.0 °F 57.2 °F 94% 29.93 in 4.0 mi Calm Calm - N/A   Overcast
3:53 AM 59.0 °F 55.9 °F 90% 29.93 in 5.0 mi Calm Calm - N/A   Overcast
4:30 AM 57.2 °F 55.4 °F 94% 29.93 in 3.0 mi East 3.5 mph - 0.00 in Rain Light Rain
4:39 AM 57.2 °F 55.4 °F 94% 29.93 in 2.5 mi East 3.5 mph - 0.00 in Rain Light Rain
4:48 AM 57.2 °F 55.4 °F 94% 29.93 in 1.5 mi East 3.5 mph - 0.02 in Rain Light Rain
4:53 AM 57.9 °F 55.9 °F 93% 29.93 in 1.5 mi East 3.5 mph - 0.03 in Rain Rain
5:02 AM 57.2 °F 55.4 °F 94% 29.93 in 2.0 mi Calm Calm - 0.01 in Rain Light Rain
5:11 AM 57.2 °F 55.4 °F 94% 29.93 in 2.5 mi East 3.5 mph - 0.01 in   Overcast
5:29 AM 57.2 °F 57.2 °F 100% 29.93 in 2.0 mi East 4.6 mph - 0.01 in Rain Light Rain
5:53 AM 57.9 °F 57.0 °F 97% 29.93 in 2.5 mi East 3.5 mph - 0.01 in   Overcast
6:53 AM 57.9 °F 57.0 °F 97% 29.95 in 2.5 mi Calm Calm - N/A   Overcast
7:53 AM 59.0 °F 57.0 °F 93% 29.96 in 2.0 mi Calm Calm - N/A   Overcast
8:11 AM 59.0 °F 57.2 °F 94% 29.97 in 1.5 mi SE 3.5 mph - N/A   Overcast
8:26 AM 59.0 °F 57.2 °F 94% 29.97 in 1.0 mi Calm Calm - N/A   Overcast
8:53 AM 59.0 °F 57.9 °F 96% 29.98 in 1.8 mi SSE 4.6 mph - N/A   Overcast
9:07 AM 60.8 °F 57.2 °F 88% 29.98 in 2.0 mi South 4.6 mph - N/A   Overcast
9:14 AM 60.8 °F 57.2 °F 88% 29.98 in 2.0 mi South 5.8 mph - N/A   Overcast
9:53 AM 61.0 °F 59.0 °F 93% 29.99 in 2.5 mi South 8.1 mph - N/A   Overcast
10:53 AM 62.1 °F 57.0 °F 84% 29.99 in 6.0 mi South 9.2 mph - 0.00 in   Haze
11:53 AM 63.0 °F 55.9 °F 78% 29.99 in 9.0 mi South 11.5 mph - N/A   Overcast
12:53 PM 62.1 °F 55.9 °F 80% 30.00 in 10.0 mi South 11.5 mph 16.1 mph N/A   Overcast
1:53 PM 63.0 °F 55.0 °F 75% 29.99 in 10.0 mi SSE 6.9 mph - N/A   Overcast
2:53 PM 62.1 °F 55.9 °F 80% 29.99 in 7.0 mi SW 5.8 mph - 0.00 in   Overcast
3:40 PM 60.8 °F 55.4 °F 82% 30.00 in 7.0 mi South 10.4 mph - 0.00 in   Overcast
3:48 PM 60.8 °F 55.4 °F 82% 30.00 in 4.0 mi SSW 10.4 mph - 0.00 in   Overcast
3:53 PM 60.1 °F 57.0 °F 90% 30.00 in 3.0 mi South 9.2 mph - 0.00 in   Overcast
4:05 PM 59.0 °F 57.2 °F 94% 30.00 in 2.5 mi South 9.2 mph - N/A   Overcast
4:14 PM 59.0 °F 57.2 °F 94% 30.00 in 3.0 mi SSE 5.8 mph - 0.00 in Rain Light Rain
4:44 PM 60.8 °F 55.4 °F 82% 30.00 in 4.0 mi South 9.2 mph 17.3 mph 0.00 in   Overcast
4:53 PM 60.1 °F 55.9 °F 86% 30.00 in 5.0 mi South 12.7 mph - 0.00 in   Overcast
5:53 PM 59.0 °F 55.9 °F 90% 30.01 in 3.0 mi South 5.8 mph - 0.00 in Rain Light Rain
6:02 PM 59.0 °F 57.2 °F 94% 30.01 in 1.8 mi South 9.2 mph - 0.01 in Rain Light Rain
6:10 PM 59.0 °F 57.2 °F 94% 30.01 in 3.0 mi South 8.1 mph - 0.01 in Rain Light Rain
6:17 PM 59.0 °F 55.4 °F 88% 30.01 in 1.8 mi South 9.2 mph - 0.01 in Rain Light Rain
6:53 PM 59.0 °F 57.0 °F 93% 30.01 in 1.8 mi South 6.9 mph - 0.01 in Rain Light Rain
7:53 PM 59.0 °F 57.0 °F 93% 30.02 in 2.0 mi South 10.4 mph - 0.02 in Rain Light Rain
8:53 PM 57.9 °F 55.9 °F 93% 30.04 in 2.0 mi SSW 12.7 mph 27.6 mph 0.01 in Rain Light Rain
9:53 PM 59.0 °F 57.0 °F 93% 30.04 in 5.0 mi South 11.5 mph - 0.01 in   Overcast
10:43 PM 59.0 °F 57.2 °F 94% 30.04 in 3.0 mi South 6.9 mph - N/A   Overcast
10:51 PM 59.0 °F 57.2 °F 94% 30.05 in 2.5 mi South 4.6 mph - N/A   Overcast
10:53 PM 59.0 °F 57.0 °F 93% 30.05 in 2.5 mi South 5.8 mph - N/A   Overcast
11:30 PM 59.0 °F 57.2 °F 94% 30.05 in 3.0 mi South 6.9 mph - 0.00 in   Overcast
11:53 PM 57.9 °F 57.0 °F 97% 30.05 in 2.5 mi South 5.8 mph - 0.00 in   Overcast